There are multiple Weather-warnings   Click here for more information


Meteo18 Weather Cam more information Meteo18 Weather Cam


warning for Thunderstorms more information blitzortung!


Rain radar more information rain snow radar


Visit our other weather sites:

Template documentation
and downloads

And another site



Weather Underground History page Text

Daily Summary for August 25, 2017 Units:  Metric    English   Both
« Previous Day
Next Day »
Daily Weekly Monthly Yearly Custom
  High: Low: Average:
Temperature: 29.0 °C 17.1 °C 22.8 °C
Dew Point: 20.9 °C 15.6 °C 18.3 °C
Humidity: 93 % 58 % 77 %
Wind Speed: 19.3 km/h 0.0 km/h 4 km/h
Wind Gust: 30.6 km/h - -
Wind:- - SSW
Pressure: 1017.2 hPa 1015.5 hPa -
Precipitation: 1.3 mm    
Historical Graphs
 
 
Tabular Data for August 25, 2017
Time Temperature Dew Point Pressure Wind Wind Speed Wind Gust Humidity Rainfall Rate (Hourly)
00:02 21.8 °C 17.2 °C 1017.2 hPa NE 9.7 km/h 16.1 km/h 75 % 0.0 mm
00:07 21.7 °C 17.1 °C 1017.2 hPa NE 6.4 km/h 14.5 km/h 75 % 0.0 mm
00:12 21.7 °C 17.3 °C 1017.2 hPa NNE 9.7 km/h 14.5 km/h 76 % 0.0 mm
00:17 21.6 °C 17.2 °C 1017.2 hPa NNE 12.9 km/h 14.5 km/h 76 % 0.0 mm
00:22 21.5 °C 17.1 °C 1017.2 hPa NE 4.8 km/h 14.5 km/h 76 % 0.0 mm
00:32 21.3 °C 16.9 °C 1017.2 hPa NE 6.4 km/h 14.5 km/h 76 % 0.0 mm
00:37 21.3 °C 17.1 °C 1017.2 hPa NNE 8.0 km/h 14.5 km/h 77 % 0.0 mm
00:42 21.3 °C 17.1 °C 1016.8 hPa NE 8.0 km/h 11.3 km/h 77 % 0.0 mm
00:47 21.3 °C 17.1 °C 1017.2 hPa NE 8.0 km/h 11.3 km/h 77 % 0.0 mm
00:52 21.2 °C 17.0 °C 1016.8 hPa NE 6.4 km/h 12.9 km/h 77 % 0.0 mm
00:57 21.1 °C 16.9 °C 1016.8 hPa NE 8.0 km/h 12.9 km/h 77 % 0.0 mm
01:02 21.0 °C 16.8 °C 1016.8 hPa NE 1.6 km/h 12.9 km/h 77 % 0.0 mm
01:07 20.9 °C 16.9 °C 1016.8 hPa East 1.6 km/h 9.7 km/h 78 % 0.0 mm
01:12 20.7 °C 16.7 °C 1016.8 hPa NNW 1.6 km/h 9.7 km/h 78 % 0.0 mm
01:22 20.6 °C 16.8 °C 1016.8 hPa North 3.2 km/h 6.4 km/h 79 % 0.0 mm
01:27 20.4 °C 16.6 °C 1016.8 hPa Calm   6.4 km/h 79 % 0.0 mm
01:32 20.3 °C 16.7 °C 1016.8 hPa North 4.8 km/h 6.4 km/h 80 % 0.0 mm
01:37 20.2 °C 16.6 °C 1016.8 hPa Calm   4.8 km/h 80 % 0.0 mm
01:42 20.1 °C 16.7 °C 1016.8 hPa North 3.2 km/h 4.8 km/h 81 % 0.0 mm
01:47 20.1 °C 16.7 °C 1016.8 hPa North 1.6 km/h 4.8 km/h 81 % 0.0 mm
01:52 20.1 °C 16.5 °C 1016.8 hPa North 3.2 km/h 4.8 km/h 80 % 0.0 mm
02:02 20.1 °C 16.5 °C 1016.8 hPa Calm   8.0 km/h 80 % 0.0 mm
02:12 20.0 °C 16.6 °C 1016.5 hPa NE 1.6 km/h 8.0 km/h 81 % 0.0 mm
02:22 19.8 °C 16.4 °C 1016.5 hPa NNE 1.6 km/h 4.8 km/h 81 % 0.0 mm
02:27 19.7 °C 16.3 °C 1016.5 hPa Calm   4.8 km/h 81 % 0.0 mm
02:32 19.6 °C 16.4 °C 1016.5 hPa Calm   4.8 km/h 82 % 0.0 mm
02:37 19.6 °C 16.4 °C 1016.5 hPa NNW 3.2 km/h 3.2 km/h 82 % 0.0 mm
02:42 19.6 °C 16.4 °C 1016.5 hPa NNE 3.2 km/h 3.2 km/h 82 % 0.0 mm
02:47 19.6 °C 16.4 °C 1016.5 hPa NNE 1.6 km/h 4.8 km/h 82 % 0.0 mm
02:52 19.6 °C 16.4 °C 1016.5 hPa North 1.6 km/h 4.8 km/h 82 % 0.0 mm
02:57 19.5 °C 16.3 °C 1016.5 hPa Calm   4.8 km/h 82 % 0.0 mm
03:02 19.4 °C 16.2 °C 1016.5 hPa North 1.6 km/h 4.8 km/h 82 % 0.0 mm
03:12 19.1 °C 16.1 °C 1016.5 hPa Calm   3.2 km/h 83 % 0.0 mm
03:17 19.1 °C 16.1 °C 1016.5 hPa Calm   3.2 km/h 83 % 0.0 mm
03:22 19.1 °C 16.1 °C 1016.5 hPa NNE 1.6 km/h 3.2 km/h 83 % 0.0 mm
03:27 19.0 °C 16.0 °C 1016.5 hPa NNE 1.6 km/h 3.2 km/h 83 % 0.0 mm
03:32 18.9 °C 16.1 °C 1016.5 hPa Calm   3.2 km/h 84 % 0.0 mm
03:37 19.1 °C 16.3 °C 1016.1 hPa NE 4.8 km/h 4.8 km/h 84 % 0.0 mm
03:42 19.3 °C 16.3 °C 1016.1 hPa NNE 1.6 km/h 4.8 km/h 83 % 0.0 mm
03:52 19.1 °C 16.1 °C 1016.1 hPa Calm   6.4 km/h 83 % 0.0 mm
03:57 19.1 °C 16.1 °C 1016.1 hPa NE 3.2 km/h 3.2 km/h 83 % 0.0 mm
04:02 19.0 °C 16.0 °C 1016.1 hPa Calm   3.2 km/h 83 % 0.0 mm
04:12 18.9 °C 16.1 °C 1016.1 hPa Calm   4.8 km/h 84 % 0.0 mm
04:17 18.9 °C 16.1 °C 1016.1 hPa North 1.6 km/h 1.6 km/h 84 % 0.0 mm
04:22 18.7 °C 15.9 °C 1016.1 hPa North 1.6 km/h 1.6 km/h 84 % 0.0 mm
04:27 18.7 °C 16.1 °C 1016.1 hPa NNE 1.6 km/h 1.6 km/h 85 % 0.0 mm
04:32 18.7 °C 16.1 °C 1016.1 hPa Calm   1.6 km/h 85 % 0.0 mm
04:37 18.5 °C 15.9 °C 1016.1 hPa North 1.6 km/h 3.2 km/h 85 % 0.0 mm
04:42 18.4 °C 16.0 °C 1016.1 hPa NW 1.6 km/h 3.2 km/h 86 % 0.0 mm
04:47 18.4 °C 15.8 °C 1016.1 hPa WNW 1.6 km/h 3.2 km/h 85 % 0.0 mm
04:52 18.3 °C 16.1 °C 1016.1 hPa NW 1.6 km/h 3.2 km/h 87 % 0.0 mm
05:02 18.3 °C 16.1 °C 1016.1 hPa NW 1.6 km/h 3.2 km/h 87 % 0.0 mm
05:07 18.2 °C 16.0 °C 1016.1 hPa WNW 1.6 km/h 3.2 km/h 87 % 0.0 mm
05:12 18.3 °C 16.1 °C 1015.8 hPa NNW 1.6 km/h 3.2 km/h 87 % 0.0 mm
05:17 18.4 °C 16.2 °C 1016.1 hPa Calm   3.2 km/h 87 % 0.0 mm
05:22 18.3 °C 15.9 °C 1016.1 hPa Calm   3.2 km/h 86 % 0.0 mm
05:32 18.2 °C 16.0 °C 1015.8 hPa Calm   3.2 km/h 87 % 0.0 mm
05:42 17.9 °C 15.7 °C 1015.8 hPa Calm   1.6 km/h 87 % 0.0 mm
05:52 17.9 °C 15.9 °C 1015.8 hPa Calm   1.6 km/h 88 % 0.0 mm
06:02 17.7 °C 15.7 °C 1015.8 hPa Calm   1.6 km/h 88 % 0.0 mm
06:07 17.7 °C 15.9 °C 1016.1 hPa Calm   3.2 km/h 89 % 0.0 mm
06:12 17.7 °C 15.9 °C 1015.8 hPa Calm   3.2 km/h 89 % 0.0 mm
06:17 17.7 °C 15.9 °C 1016.1 hPa Calm   1.6 km/h 89 % 0.0 mm
06:22 17.6 °C 15.9 °C 1016.1 hPa Calm   1.6 km/h 90 % 0.0 mm
06:32 17.3 °C 15.6 °C 1016.1 hPa Calm   3.2 km/h 90 % 0.0 mm
06:37 17.3 °C 15.8 °C 1016.1 hPa Calm   3.2 km/h 91 % 0.0 mm
06:42 17.2 °C 15.7 °C 1016.1 hPa Calm     91 % 0.0 mm
06:52 17.2 °C 15.9 °C 1016.5 hPa Calm   1.6 km/h 92 % 0.0 mm
06:57 17.1 °C 15.6 °C 1016.1 hPa Calm   1.6 km/h 91 % 0.0 mm
07:02 17.1 °C 15.8 °C 1016.1 hPa Calm     92 % 0.0 mm
07:12 17.1 °C 15.6 °C 1016.1 hPa Calm     91 % 0.0 mm
07:17 17.1 °C 15.6 °C 1016.1 hPa Calm   1.6 km/h 91 % 0.0 mm
07:22 17.1 °C 15.8 °C 1016.1 hPa Calm   1.6 km/h 92 % 0.0 mm
07:32 17.2 °C 15.9 °C 1016.5 hPa Calm   3.2 km/h 92 % 0.0 mm
07:42 17.7 °C 16.4 °C 1016.5 hPa Calm     92 % 0.0 mm
07:52 18.1 °C 16.3 °C 1016.8 hPa Calm     89 % 0.0 mm
08:02 18.3 °C 16.6 °C 1016.5 hPa Calm     90 % 0.0 mm
08:07 18.4 °C 16.6 °C 1016.5 hPa Calm   1.6 km/h 89 % 0.0 mm
08:12 18.4 °C 16.6 °C 1016.5 hPa Calm   1.6 km/h 89 % 0.0 mm
08:17 18.6 °C 16.8 °C 1016.5 hPa Calm   1.6 km/h 89 % 0.0 mm
08:22 18.7 °C 16.8 °C 1016.5 hPa Calm   1.6 km/h 89 % 0.0 mm
08:32 18.9 °C 17.0 °C 1016.5 hPa Calm     89 % 0.0 mm
08:37 19.1 °C 17.1 °C 1016.5 hPa Calm     88 % 0.0 mm
08:47 19.1 °C 17.1 °C 1016.8 hPa Calm   1.6 km/h 88 % 0.0 mm
08:52 19.1 °C 17.2 °C 1016.8 hPa SW 1.6 km/h 1.6 km/h 89 % 0.0 mm
09:02 19.2 °C 17.2 °C 1016.8 hPa SSE 1.6 km/h 3.2 km/h 88 % 0.0 mm
09:07 19.3 °C 17.4 °C 1016.5 hPa Calm   6.4 km/h 89 % 0.0 mm
09:12 19.2 °C 17.5 °C 1016.1 hPa East 1.6 km/h 6.4 km/h 90 % 0.0 mm
09:17 19.1 °C 17.4 °C 1016.1 hPa Calm   4.8 km/h 90 % 1.3 mm
09:27 19.1 °C 17.6 °C 1016.1 hPa Calm   3.2 km/h 91 % 1.3 mm
09:32 19.1 °C 17.8 °C 1016.1 hPa Calm   3.2 km/h 92 % 1.3 mm
09:37 19.0 °C 17.7 °C 1016.5 hPa West 1.6 km/h 3.2 km/h 92 % 1.3 mm
09:47 19.1 °C 17.9 °C 1016.1 hPa Calm   3.2 km/h 93 % 1.3 mm
09:52 19.2 °C 18.0 °C 1016.1 hPa ENE 1.6 km/h 3.2 km/h 93 % 1.3 mm
10:02 19.3 °C 18.0 °C 1016.5 hPa Calm   1.6 km/h 92 % 1.3 mm
10:12 20.0 °C 18.7 °C 1016.5 hPa Calm   3.2 km/h 92 % 1.3 mm
10:17 20.6 °C 19.4 °C 1016.5 hPa Calm   1.6 km/h 93 % 0.0 mm
10:22 20.9 °C 19.2 °C 1016.8 hPa Calm   1.6 km/h 90 % 0.0 mm
10:32 20.9 °C 19.0 °C 1017.2 hPa SW 3.2 km/h 3.2 km/h 89 % 0.0 mm
10:42 20.9 °C 19.2 °C 1016.8 hPa SSW 1.6 km/h 6.4 km/h 90 % 0.0 mm
10:52 21.7 °C 19.8 °C 1016.8 hPa SSW 3.2 km/h 6.4 km/h 89 % 0.0 mm
10:57 22.1 °C 19.6 °C 1016.8 hPa SSE 6.4 km/h 6.4 km/h 86 % 0.0 mm
11:02 22.4 °C 19.8 °C 1016.8 hPa SSW 6.4 km/h 6.4 km/h 85 % 0.0 mm
11:12 23.2 °C 20.2 °C 1016.8 hPa SSW 1.6 km/h 9.7 km/h 83 % 0.0 mm
11:17 23.7 °C 20.6 °C 1016.8 hPa Calm   9.7 km/h 83 % 0.0 mm
11:22 24.1 °C 20.2 °C 1016.8 hPa Calm   9.7 km/h 79 % 0.0 mm
11:32 25.0 °C 20.3 °C 1016.8 hPa SW 9.7 km/h 9.7 km/h 75 % 0.0 mm
11:42 25.3 °C 19.7 °C 1016.8 hPa WSW 9.7 km/h 11.3 km/h 71 % 0.0 mm
11:52 25.4 °C 19.8 °C 1016.8 hPa WSW 9.7 km/h 16.1 km/h 71 % 0.0 mm
12:02 25.7 °C 19.8 °C 1016.8 hPa WNW 4.8 km/h 19.3 km/h 70 % 0.0 mm
12:07 25.7 °C 19.8 °C 1016.8 hPa WSW 9.7 km/h 16.1 km/h 70 % 0.0 mm
12:12 25.8 °C 20.1 °C 1016.8 hPa WSW 4.8 km/h 16.1 km/h 71 % 0.0 mm
12:17 26.0 °C 19.9 °C 1016.8 hPa SW 9.7 km/h 17.7 km/h 69 % 0.0 mm
12:22 25.8 °C 20.1 °C 1016.8 hPa SW 11.3 km/h 17.7 km/h 71 % 0.0 mm
12:27 26.0 °C 19.9 °C 1016.8 hPa West 8.0 km/h 17.7 km/h 69 % 0.0 mm
12:32 26.3 °C 20.4 °C 1016.5 hPa SW 17.7 km/h 17.7 km/h 70 % 0.0 mm
12:37 26.5 °C 20.6 °C 1016.5 hPa NW 8.0 km/h 17.7 km/h 70 % 0.0 mm
12:42 26.4 °C 20.3 °C 1016.5 hPa WNW 3.2 km/h 17.7 km/h 69 % 0.0 mm
12:47 26.4 °C 20.5 °C 1016.5 hPa SW 6.4 km/h 17.7 km/h 70 % 0.0 mm
12:52 26.6 °C 20.4 °C 1016.5 hPa WSW 6.4 km/h 17.7 km/h 69 % 0.0 mm
12:57 26.7 °C 20.8 °C 1016.5 hPa West 4.8 km/h 17.7 km/h 70 % 0.0 mm
13:02 26.7 °C 20.1 °C 1016.5 hPa SW 6.4 km/h 17.7 km/h 67 % 0.0 mm
13:12 26.9 °C 20.5 °C 1016.5 hPa West 11.3 km/h 17.7 km/h 68 % 0.0 mm
13:17 26.9 °C 20.3 °C 1016.5 hPa South 19.3 km/h 24.1 km/h 67 % 0.0 mm
13:22 27.1 °C 20.4 °C 1016.5 hPa West 3.2 km/h 24.1 km/h 67 % 0.0 mm
13:32 27.3 °C 20.4 °C 1016.1 hPa West 9.7 km/h 22.5 km/h 66 % 0.0 mm
13:42 27.1 °C 20.2 °C 1016.5 hPa West 11.3 km/h 17.7 km/h 66 % 0.0 mm
13:52 27.8 °C 20.6 °C 1016.1 hPa West 8.0 km/h 19.3 km/h 65 % 0.0 mm
14:02 28.1 °C 20.9 °C 1016.1 hPa SSW 16.1 km/h 20.9 km/h 65 % 0.0 mm
14:07 28.3 °C 20.8 °C 1016.1 hPa WSW 14.5 km/h 19.3 km/h 64 % 0.0 mm
14:12 28.2 °C 20.5 °C 1016.1 hPa West 14.5 km/h 19.3 km/h 63 % 0.0 mm
14:17 28.1 °C 20.6 °C 1016.1 hPa West 6.4 km/h 22.5 km/h 64 % 0.0 mm
14:22 28.3 °C 20.1 °C 1016.1 hPa West 6.4 km/h 22.5 km/h 61 % 0.0 mm
14:32 28.2 °C 20.2 °C 1016.1 hPa SSW 4.8 km/h 22.5 km/h 62 % 0.0 mm
14:37 28.6 °C 20.3 °C 1016.1 hPa WSW 12.9 km/h 19.3 km/h 61 % 0.0 mm
14:42 28.6 °C 20.1 °C 1016.1 hPa SW 11.3 km/h 19.3 km/h 60 % 0.0 mm
14:52 28.2 °C 20.0 °C 1016.1 hPa WSW 9.7 km/h 19.3 km/h 61 % 0.0 mm
15:02 28.4 °C 20.4 °C 1016.1 hPa WNW 14.5 km/h 19.3 km/h 62 % 0.0 mm
15:07 28.4 °C 19.6 °C 1016.1 hPa SW 9.7 km/h 19.3 km/h 59 % 0.0 mm
15:12 28.3 °C 19.8 °C 1016.1 hPa WSW 4.8 km/h 19.3 km/h 60 % 0.0 mm
15:17 28.6 °C 20.3 °C 1015.8 hPa WSW 12.9 km/h 19.3 km/h 61 % 0.0 mm
15:22 28.6 °C 20.1 °C 1015.8 hPa SW 4.8 km/h 19.3 km/h 60 % 0.0 mm
15:32 28.6 °C 19.8 °C 1015.8 hPa West 9.7 km/h 19.3 km/h 59 % 0.0 mm
15:42 28.9 °C 19.8 °C 1015.8 hPa WNW 9.7 km/h 17.7 km/h 58 % 0.0 mm
15:47 28.8 °C 20.0 °C 1015.8 hPa WSW 12.9 km/h 19.3 km/h 59 % 0.0 mm
15:52 28.8 °C 20.0 °C 1015.8 hPa SW 8.0 km/h 19.3 km/h 59 % 0.0 mm
16:02 29.0 °C 19.9 °C 1015.5 hPa WSW 8.0 km/h 20.9 km/h 58 % 0.0 mm
16:12 28.5 °C 19.7 °C 1015.5 hPa West 3.2 km/h 22.5 km/h 59 % 0.0 mm
16:17 28.7 °C 19.9 °C 1015.5 hPa WNW 6.4 km/h 17.7 km/h 59 % 0.0 mm
16:22 28.9 °C 19.8 °C 1015.5 hPa SW 8.0 km/h 17.7 km/h 58 % 0.0 mm
16:32 28.6 °C 20.1 °C 1015.5 hPa WSW 11.3 km/h 19.3 km/h 60 % 0.0 mm
16:42 28.4 °C 19.9 °C 1015.5 hPa WSW 12.9 km/h 19.3 km/h 60 % 0.0 mm
16:52 28.8 °C 20.0 °C 1015.5 hPa West 14.5 km/h 20.9 km/h 59 % 0.0 mm
17:02 28.7 °C 19.9 °C 1015.5 hPa WSW 14.5 km/h 30.6 km/h 59 % 0.0 mm
17:07 28.6 °C 20.1 °C 1015.5 hPa WSW 17.7 km/h 24.1 km/h 60 % 0.0 mm
17:12 28.3 °C 19.5 °C 1015.5 hPa WSW 16.1 km/h 24.1 km/h 59 % 0.0 mm
17:17 28.3 °C 19.5 °C 1015.5 hPa WSW 9.7 km/h 22.5 km/h 59 % 0.0 mm
17:22 28.4 °C 19.6 °C 1015.5 hPa WSW 9.7 km/h 22.5 km/h 59 % 0.0 mm
17:27 28.6 °C 19.8 °C 1015.5 hPa WSW 9.7 km/h 19.3 km/h 59 % 0.0 mm
17:32 28.5 °C 19.4 °C 1015.5 hPa West 11.3 km/h 19.3 km/h 58 % 0.0 mm
17:37 28.3 °C 19.2 °C 1015.5 hPa SW 8.0 km/h 22.5 km/h 58 % 0.0 mm
17:42 28.1 °C 19.3 °C 1015.5 hPa WSW 12.9 km/h 22.5 km/h 59 % 0.0 mm
17:52 27.8 °C 19.3 °C 1015.5 hPa WSW 11.3 km/h 22.5 km/h 60 % 0.0 mm
17:57 27.8 °C 19.6 °C 1015.5 hPa West 6.4 km/h 14.5 km/h 61 % 0.0 mm
18:02 27.7 °C 19.8 °C 1015.5 hPa SW 4.8 km/h 14.5 km/h 62 % 0.0 mm
18:12 27.5 °C 19.6 °C 1015.5 hPa WSW 9.7 km/h 20.9 km/h 62 % 0.0 mm
18:17 27.4 °C 19.7 °C 1015.5 hPa West 9.7 km/h 20.9 km/h 63 % 0.0 mm
18:22 27.5 °C 19.8 °C 1015.5 hPa SW 9.7 km/h 17.7 km/h 63 % 0.0 mm
18:32 27.6 °C 19.9 °C 1015.5 hPa West 11.3 km/h 17.7 km/h 63 % 0.0 mm
18:37 27.8 °C 19.8 °C 1015.5 hPa SW 9.7 km/h 17.7 km/h 62 % 0.0 mm
18:42 27.7 °C 20.0 °C 1015.5 hPa WSW 6.4 km/h 17.7 km/h 63 % 0.0 mm
18:47 27.5 °C 19.8 °C 1015.5 hPa WSW 8.0 km/h 17.7 km/h 63 % 0.0 mm
18:57 27.3 °C 19.6 °C 1015.5 hPa West 4.8 km/h 19.3 km/h 63 % 0.0 mm
19:02 27.3 °C 19.6 °C 1015.5 hPa WSW 9.7 km/h 19.3 km/h 63 % 0.0 mm
19:12 27.2 °C 19.8 °C 1015.5 hPa SSW 3.2 km/h 19.3 km/h 64 % 0.0 mm
19:17 27.1 °C 19.7 °C 1015.5 hPa SW 8.0 km/h 16.1 km/h 64 % 0.0 mm
19:22 27.0 °C 19.9 °C 1015.5 hPa SW 4.8 km/h 16.1 km/h 65 % 0.0 mm
19:32 27.0 °C 19.9 °C 1015.5 hPa SW 3.2 km/h 14.5 km/h 65 % 0.0 mm
19:37 26.9 °C 19.8 °C 1015.5 hPa SSW 4.8 km/h 14.5 km/h 65 % 0.0 mm
19:42 26.9 °C 19.8 °C 1015.8 hPa WSW 4.8 km/h 14.5 km/h 65 % 0.0 mm
19:52 26.8 °C 19.7 °C 1015.8 hPa WSW 1.6 km/h 11.3 km/h 65 % 0.0 mm
19:57 26.8 °C 19.7 °C 1015.8 hPa WSW 1.6 km/h 8.0 km/h 65 % 0.0 mm
20:02 26.7 °C 19.8 °C 1015.8 hPa WSW 3.2 km/h 8.0 km/h 66 % 0.0 mm
20:12 26.3 °C 19.7 °C 1015.8 hPa Calm   6.4 km/h 67 % 0.0 mm
20:17 26.2 °C 19.8 °C 1015.8 hPa Calm   3.2 km/h 68 % 0.0 mm
20:22 26.1 °C 19.7 °C 1015.8 hPa Calm   3.2 km/h 68 % 0.0 mm
20:32 25.7 °C 19.8 °C 1016.1 hPa Calm   1.6 km/h 70 % 0.0 mm
20:37 25.5 °C 19.6 °C 1016.1 hPa Calm   1.6 km/h 70 % 0.0 mm
20:42 25.2 °C 19.6 °C 1016.1 hPa Calm   1.6 km/h 71 % 0.0 mm
20:47 25.0 °C 19.6 °C 1016.1 hPa Calm     72 % 0.0 mm
20:52 24.7 °C 19.5 °C 1016.1 hPa Calm     73 % 0.0 mm
20:57 24.4 °C 19.5 °C 1016.1 hPa Calm     74 % 0.0 mm
21:02 24.2 °C 19.5 °C 1016.1 hPa Calm     75 % 0.0 mm
21:12 23.7 °C 19.4 °C 1016.1 hPa Calm     77 % 0.0 mm
21:17 23.6 °C 19.5 °C 1016.5 hPa Calm     78 % 0.0 mm
21:22 23.4 °C 19.3 °C 1016.5 hPa Calm     78 % 0.0 mm
21:32 23.3 °C 19.2 °C 1016.5 hPa Calm     78 % 0.0 mm
21:42 23.1 °C 19.1 °C 1016.5 hPa Calm     78 % 0.0 mm
21:52 22.8 °C 18.8 °C 1016.5 hPa Calm     78 % 0.0 mm
21:57 22.6 °C 19.0 °C 1016.8 hPa Calm     80 % 0.0 mm
22:02 22.4 °C 18.8 °C 1016.8 hPa Calm     80 % 0.0 mm
22:12 21.9 °C 18.7 °C 1016.8 hPa Calm     82 % 0.0 mm
22:17 21.7 °C 18.7 °C 1016.8 hPa Calm     83 % 0.0 mm
22:22 21.6 °C 18.6 °C 1016.8 hPa Calm     83 % 0.0 mm
22:27 21.6 °C 18.8 °C 1016.8 hPa Calm     84 % 0.0 mm
22:32 21.4 °C 18.4 °C 1016.8 hPa Calm     83 % 0.0 mm
22:42 21.7 °C 18.5 °C 1016.8 hPa Calm     82 % 0.0 mm
22:52 21.4 °C 18.4 °C 1016.8 hPa Calm     83 % 0.0 mm
22:57 21.2 °C 18.4 °C 1016.8 hPa Calm     84 % 0.0 mm
23:07 21.3 °C 18.3 °C 1017.2 hPa Calm     83 % 0.0 mm
23:12 21.2 °C 18.2 °C 1017.2 hPa Calm     83 % 0.0 mm
23:17 21.1 °C 18.3 °C 1017.2 hPa Calm     84 % 0.0 mm
23:22 20.8 °C 18.0 °C 1017.2 hPa Calm     84 % 0.0 mm
23:27 20.6 °C 18.0 °C 1017.2 hPa Calm     85 % 0.0 mm
23:32 20.4 °C 18.0 °C 1017.2 hPa Calm     86 % 0.0 mm
23:37 20.4 °C 18.2 °C 1017.2 hPa Calm     87 % 0.0 mm
23:42 20.3 °C 18.1 °C 1017.2 hPa Calm     87 % 0.0 mm
23:52 20.1 °C 17.9 °C 1017.2 hPa Calm     87 % 0.0 mm
23:57 20.0 °C 18.0 °C 1017.2 hPa Calm     88 % 0.0 mm
Meteo18
Compliments of Weather Underground - 4 mb

Script developed by  Jim McMurry - jmcmurry@mwt.net Adapted for the template by  Wim van der Kuil - Leuven-Template.eu

You find our weather info also at:

European Weather Network

Weather Underground

Equipment we use:

Weather-station
Davis Vue

Weather-program
Meteohub

Weather-server
Raspberry PI 2 B+

Provider
1 and 1

Davis Vue

Meteohub

Raspberry PI 2 B+

1 and 1